Hourly Weather Roundup
Issued by NWS Central Illinois

Home | Current Version | Previous Version | Text Only | Print | Product List | Glossary On
Versions: 1 2 3 4 5 6 7 8 9 10 11 12 13 14 15 16 17 18 19 20 21 22 23 24 25 26 27 28 29 30 31 32 33 34 35 36 37 38 39 40 41 42 43 44 45 46 47 48 49 50
000
NZUS43 KILX 200610
HWRILX

Area Weather Roundup
National Weather Service Lincoln IL
100 AM CDT FRI OCT 20 2017

NOTE:  "FAIR" indicates few or no clouds below 12,000 feet, with
       no sigificant weather and/or obstructions to visibility.


CITY           SKY/WX    TMP DP  RH WIND       PRES   REMARKS
Bloomington    FAIR      56  50  80 S9        30.17S
6HR MIN TEMP:  54; 6HR MAX TEMP:  66;

Champaign      FAIR      54  47  77 SE5       30.19R
6HR MIN TEMP:  54; 6HR MAX TEMP:  63;

Danville       FAIR      54  50  87 CALM      30.17S
6HR MIN TEMP:  52; 6HR MAX TEMP:  64;

Decatur        FAIR      57  49  74 S7        30.17S
6HR MIN TEMP:  55; 6HR MAX TEMP:  66;

Effingham      FAIR      52  51  97 CALM      30.21S
6HR MIN TEMP:  52; 6HR MAX TEMP:  64;

Flora          FAIR      54  50  86 CALM      30.21R
6HR MIN TEMP:  53; 6HR MAX TEMP:  64;

Galesburg      FAIR      64  58  80 SE6       30.12S
6HR MIN TEMP:  64; 6HR MAX TEMP:  73;

Jacksonville   FAIR      61  50  65 S8        30.14S
6HR MIN TEMP:  59; 6HR MAX TEMP:  69;

Lacon          FAIR      57  50  77 S3        30.12S
6HR MIN TEMP:  57; 6HR MAX TEMP:  64;

Lawrenceville  FAIR      55  51  86 CALM      30.21S
6HR MIN TEMP:  54; 6HR MAX TEMP:  65;

Litchfield     FAIR      57  50  77 S7        30.17S
6HR MIN TEMP:  57; 6HR MAX TEMP:  62;

$$


CITY           SKY/WX    TMP DP  RH WIND       PRES   REMARKS
Lincoln        FAIR      57  51  79 S6        30.16R
6HR MIN TEMP:  55; 6HR MAX TEMP:  65;

Macomb         FAIR      55  50  81 S6        30.13S
6HR MIN TEMP:  54; 6HR MAX TEMP:  65;

Mattoon        FAIR      59  52  77 S6        30.18S
6HR MIN TEMP:  56; 6HR MAX TEMP:  67;

Mt Carmel AP   FAIR      53  49  86 CALM      30.21S
6HR MIN TEMP:  53; 6HR MAX TEMP:  63;

Olney-Noble AP FAIR      54  52  93 CALM      30.21S
Paris AP       FAIR      53  50  87 S3        30.20S
6HR MIN TEMP:  53; 6HR MAX TEMP:  59;

Peoria         FAIR      57  50  77 S5        30.13F
6HR MIN TEMP:  57; 6HR MAX TEMP:  66;

Pontiac        FAIR      53  52  98 SE7       30.16S
6HR MIN TEMP:  50; 6HR MAX TEMP:  61;

Rantoul        FAIR      54  51  87 SE3       30.18S
6HR MIN TEMP:  53; 6HR MAX TEMP:  67;

Robinson       FAIR      49  48  97 CALM      30.22S
6HR MIN TEMP:  48; 6HR MAX TEMP:  61;

Springfield    FAIR      62  52  69 S9        30.15S
6HR MIN TEMP:  58; 6HR MAX TEMP:  66;

Taylorville    FAIR      58  50  75 S7        30.17S
6HR MIN TEMP:  55; 6HR MAX TEMP:  65;

$$

...REGIONAL REPORTS...


CITY           SKY/WX    TMP DP  RH WIND       PRES   REMARKS
Chicago O`Hare FAIR      53  39  59 S5        30.14F
Kankakee       FAIR      51  47  85 SE3       30.17S
Moline         FAIR      60  50  69 S6        30.09S
Mount Sterling FAIR      55  49  80 S5        30.12S
Mount Vernon   FAIR      46  46 100 CALM      30.20S FOG
Pittsfield     FAIR      56  50  81 S6        30.14S
Quincy         NOT AVBL
Rockford       FAIR      52  39  61 S3        30.13F
$$


CITY           SKY/WX    TMP DP  RH WIND       PRES   REMARKS
Burlington     FAIR      59  52  77 S7        30.09F
Cedar Rapids   FAIR      56  50  80 S5        30.06S
Des Moines     FAIR      59  52  77 S9        30.02S
Kirksville     FAIR      55  51  86 S6        30.10S
Ottumwa        FAIR      59  51  75 S10       30.05F
St Louis       FAIR      63  51  65 S3        30.16S
$$


CITY           SKY/WX    TMP DP  RH WIND       PRES   REMARKS
Terre Haute    FAIR      50  48  93 CALM      30.21S
Evansville     FAIR      50  48  93 CALM      30.23R
Indianapolis   FAIR      57  51  80 CALM      30.23R
Lafayette      FAIR      52  51  97 CALM      30.19S
Madison        FAIR      54  37  52 S6        30.10S
Milwaukee      FAIR      55  27  34 S7        30.13F
$$






USA.gov is the U.S. government's official web portal to all federal, state and local government web resources and services.